NEUDOSE (56315 NORAD) Tracking and Keplerian Element Data

This shows tracking and keplerian element data for the satellite.

Feedback or suggestion? Click here.




ElementValue
Catalog56315
NameNEUDOSE
Epoch Orbit195
Epoch Day126.98190305
Epoch Year2023
RAAN172.6396
Inclination51.6377
Eccentricity0.0007861
Argument of Perigee300.2659
Mean Anonmoly59.7552
Mean Motion15.51871466
Decay Rate0.00049564
L11 56315U 98067VG 23126.98190305 .00049564 00000+0 81413-3 0 9996
L22 56315 51.6377 172.6396 0007861 300.2659 59.7552 15.51871466 1954



Live tracking and technical data element details for NEUDOSE (NORAD 56315). NEUDOSE can be tracked NOW for your location showing map with azimuth and elevation plus other details from your city location.







IsCatalogInMostPopularTable: catalog: 56315, numindb: 9
Update: records affected: 1



GetName: 56315 NEUDOSE

Hit Count: updated at: Wed, 07 Jun 2023 09:31:53 GMT